| time (UTC) | temp F | wind direction | speed MPH | gust MPH | rain 1hr in | rain 24hr in | rain mn in | humidity % | barometer mb |
| 20260905111004 | 99 | 147 | 2.0 | 7.0 | 0.00 | 0.00 | 0.00 | 10 | 1017.4 |
| 20260905110504 | 98 | 143 | 2.0 | 6.0 | 0.00 | 0.00 | 0.00 | 10 | 1017.4 |
| 20260905110003 | 98 | 141 | 3.0 | 6.0 | 0.00 | 0.00 | 0.00 | 10 | 1017.4 |
| 20260905105503 | 98 | 0 | 0.0 | 6.0 | 0.00 | 0.00 | 0.00 | 11 | 1017.4 |
| 20260905105004 | 98 | 106 | 2.0 | 7.0 | 0.00 | 0.00 | 0.00 | 12 | 1017.5 |
| 20260905104504 | 97 | 124 | 2.0 | 7.0 | 0.00 | 0.00 | 0.00 | 12 | 1017.5 |
| 20260905104003 | 97 | 147 | 4.0 | 7.0 | 0.00 | 0.00 | 0.00 | 12 | 1017.5 |
| 20260905103503 | 97 | 131 | 2.0 | 4.0 | 0.00 | 0.00 | 0.00 | 12 | 1017.6 |
| 20260905103003 | 97 | 151 | 1.0 | 7.0 | 0.00 | 0.00 | 0.00 | 14 | 1017.5 |
| 20260905102504 | 96 | 191 | 1.0 | 7.0 | 0.00 | 0.00 | 0.00 | 15 | 1017.6 |
| 20260905102003 | 96 | 137 | 2.0 | 6.0 | 0.00 | 0.00 | 0.00 | 15 | 1017.7 |
| 20260905101503 | 95 | 132 | 1.0 | 7.0 | 0.00 | 0.00 | 0.00 | 16 | 1017.7 |
| 20260905101004 | 95 | 132 | 2.0 | 7.0 | 0.00 | 0.00 | 0.00 | 16 | 1017.8 |
| 20260905100503 | 96 | 148 | 2.0 | 7.0 | 0.00 | 0.00 | 0.00 | 17 | 1017.9 |
| 20260905100003 | 95 | 267 | 2.0 | 7.0 | 0.00 | 0.00 | 0.00 | 17 | 1018.1 |
| 20260905095503 | 96 | 270 | 1.0 | 6.0 | 0.00 | 0.00 | 0.00 | 18 | 1018.1 |
| 20260905095004 | 95 | 223 | 2.0 | 7.0 | 0.00 | 0.00 | 0.00 | 17 | 1018.1 |
| 20260905094504 | 95 | 198 | 3.0 | 7.0 | 0.00 | 0.00 | 0.00 | 17 | 1018.2 |
| 20260905094003 | 96 | 0 | 0.0 | 8.0 | 0.00 | 0.00 | 0.00 | 19 | 1018.1 |
| 20260905093503 | 96 | 292 | 1.0 | 8.0 | 0.00 | 0.00 | 0.00 | 18 | 1018.1 |
| 20260905093003 | 96 | 53 | 4.0 | 8.0 | 0.00 | 0.00 | 0.00 | 18 | 1018.2 |
| 20260905092504 | 95 | 110 | 2.0 | 6.0 | 0.00 | 0.00 | 0.00 | 19 | 1018.2 |
| 20260905092003 | 95 | 275 | 2.0 | 6.0 | 0.00 | 0.00 | 0.00 | 19 | 1018.2 |
| 20260905091503 | 94 | 264 | 2.0 | 6.0 | 0.00 | 0.00 | 0.00 | 18 | 1018.3 |
| 20260905091003 | 95 | 262 | 1.0 | 6.0 | 0.00 | 0.00 | 0.00 | 19 | 1018.4 |
| 20260905090504 | 95 | 270 | 2.0 | 6.0 | 0.00 | 0.00 | 0.00 | 19 | 1018.4 |
| 20260905090003 | 94 | 296 | 2.0 | 4.0 | 0.00 | 0.00 | 0.00 | 21 | 1018.5 |
| 20260905085503 | 95 | 333 | 2.0 | 4.0 | 0.00 | 0.00 | 0.00 | 20 | 1018.5 |
| 20260905085004 | 94 | 0 | 0.0 | 4.0 | 0.00 | 0.00 | 0.00 | 21 | 1018.4 |
| 20260905084503 | 93 | 0 | 0.0 | 4.0 | 0.00 | 0.00 | 0.00 | 22 | 1018.5 |
| 20260905084003 | 92 | 241 | 1.0 | 5.0 | 0.00 | 0.00 | 0.00 | 23 | 1018.5 |
| 20260905083503 | 93 | 229 | 2.0 | 5.0 | 0.00 | 0.00 | 0.00 | 22 | 1018.5 |
| 20260905083004 | 94 | 113 | 2.0 | 3.0 | 0.00 | 0.00 | 0.00 | 22 | 1018.6 |
| 20260905082503 | 93 | 0 | 0.0 | 4.0 | 0.00 | 0.00 | 0.00 | 24 | 1018.5 |
| 20260905082003 | 91 | 294 | 1.0 | 4.0 | 0.00 | 0.00 | 0.00 | 26 | 1018.6 |
| 20260905081503 | 90 | 0 | 0.0 | 4.0 | 0.00 | 0.00 | 0.00 | 28 | 1018.6 |
| 20260905081004 | 89 | 0 | 0.0 | 4.0 | 0.00 | 0.00 | 0.00 | 29 | 1018.7 |
| 20260905080504 | 89 | 251 | 1.0 | 6.0 | 0.00 | 0.00 | 0.00 | 30 | 1018.7 |
| 20260905080003 | 88 | 238 | 1.0 | 7.0 | 0.00 | 0.00 | 0.00 | 31 | 1018.7 |
| 20260905075504 | 88 | 239 | 2.0 | 7.0 | 0.00 | 0.00 | 0.00 | 32 | 1018.7 |
| 20260905075003 | 88 | 233 | 3.0 | 6.0 | 0.00 | 0.00 | 0.00 | 32 | 1018.7 |
| 20260905074505 | 88 | 228 | 1.0 | 6.0 | 0.00 | 0.00 | 0.00 | 34 | 1018.6 |
| 20260905074004 | 87 | 238 | 3.0 | 6.0 | 0.00 | 0.00 | 0.00 | 35 | 1018.6 |
| 20260905073503 | 87 | 234 | 2.0 | 5.0 | 0.00 | 0.00 | 0.00 | 37 | 1018.6 |
| 20260905073003 | 87 | 231 | 2.0 | 6.0 | 0.00 | 0.00 | 0.00 | 37 | 1018.5 |
| 20260905072504 | 87 | 251 | 2.0 | 7.0 | 0.00 | 0.00 | 0.00 | 37 | 1018.5 |
| 20260905072004 | 87 | 270 | 3.0 | 7.0 | 0.00 | 0.00 | 0.00 | 37 | 1018.4 |
| 20260905071503 | 87 | 255 | 1.0 | 5.0 | 0.00 | 0.00 | 0.00 | 33 | 1018.5 |
| 20260905071004 | 87 | 232 | 1.0 | 5.0 | 0.00 | 0.00 | 0.00 | 33 | 1018.5 |
| 20260905070504 | 88 | 233 | 2.0 | 5.0 | 0.00 | 0.00 | 0.00 | 31 | 1018.5 |
| 20260905070004 | 87 | 240 | 1.0 | 4.0 | 0.00 | 0.00 | 0.00 | 30 | 1018.4 |
| 20260905065503 | 87 | 231 | 2.0 | 4.0 | 0.00 | 0.00 | 0.00 | 30 | 1018.3 |
| 20260905065004 | 87 | 234 | 2.0 | 4.0 | 0.00 | 0.00 | 0.00 | 30 | 1018.6 |
| 20260905064503 | 87 | 274 | 1.0 | 3.0 | 0.00 | 0.00 | 0.00 | 30 | 1018.5 |
| 20260905064004 | 87 | 0 | 0.0 | 2.0 | 0.00 | 0.00 | 0.00 | 29 | 1018.5 |
| 20260905063504 | 87 | 0 | 0.0 | 3.0 | 0.00 | 0.00 | 0.00 | 29 | 1018.5 |
| 20260905063003 | 86 | 0 | 0.0 | 3.0 | 0.00 | 0.00 | 0.00 | 30 | 1018.6 |
| 20260905062503 | 86 | 0 | 0.0 | 2.0 | 0.00 | 0.00 | 0.00 | 31 | 1018.6 |
| 20260905062004 | 86 | 0 | 0.0 | 2.0 | 0.00 | 0.00 | 0.00 | 32 | 1018.6 |
| 20260905061503 | 85 | 0 | 0.0 | 2.0 | 0.00 | 0.00 | 0.00 | 34 | 1018.6 |
| 20260905061004 | 85 | 0 | 0.0 | 2.0 | 0.00 | 0.00 | 0.00 | 34 | 1018.5 |
| 20260905060504 | 84 | 0 | 0.0 | 2.0 | 0.00 | 0.00 | 0.00 | 35 | 1018.6 |
| 20260905060003 | 84 | 0 | 0.0 | 2.0 | 0.00 | 0.00 | 0.00 | 36 | 1018.5 |
| 20260905055504 | 83 | 0 | 0.0 | 3.0 | 0.00 | 0.00 | 0.00 | 37 | 1018.4 |
| 20260905055004 | 83 | 0 | 0.0 | 3.0 | 0.00 | 0.00 | 0.00 | 37 | 1018.6 |
| 20260905054503 | 82 | 0 | 0.0 | 3.0 | 0.00 | 0.00 | 0.00 | 39 | 1018.4 |
| 20260905054003 | 81 | 213 | 1.0 | 3.0 | 0.00 | 0.00 | 0.00 | 39 | 1018.5 |
| 20260905053504 | 81 | 196 | 1.0 | 3.0 | 0.00 | 0.00 | 0.00 | 40 | 1018.5 |
| 20260905053004 | 80 | 95 | 1.0 | 3.0 | 0.00 | 0.00 | 0.00 | 41 | 1018.5 |
| 20260905052503 | 80 | 0 | 0.0 | 3.0 | 0.00 | 0.00 | 0.00 | 41 | 1018.5 |
| 20260905052004 | 79 | 31 | 1.0 | 5.0 | 0.00 | 0.00 | 0.00 | 42 | 1018.6 |
| 20260905051504 | 79 | 47 | 2.0 | 5.0 | 0.00 | 0.00 | 0.00 | 42 | 1018.4 |
| 20260905051004 | 79 | 0 | 0.0 | 4.0 | 0.00 | 0.00 | 0.00 | 43 | 1018.5 |
| 20260905050503 | 78 | 83 | 1.0 | 3.0 | 0.00 | 0.00 | 0.00 | 43 | 1018.4 |
| 20260905050004 | 78 | 0 | 0.0 | 2.0 | 0.00 | 0.00 | 0.00 | 44 | 1018.5 |
| 20260905045503 | 77 | 0 | 0.0 | 3.0 | 0.00 | 0.00 | 0.00 | 44 | 1018.4 |
| 20260905045004 | 77 | 0 | 0.0 | 3.0 | 0.00 | 0.00 | 0.00 | 45 | 1018.4 |
| 20260905044504 | 77 | 9 | 1.0 | 4.0 | 0.00 | 0.00 | 0.00 | 45 | 1018.4 |
| 20260905044003 | 76 | 0 | 0.0 | 4.0 | 0.00 | 0.00 | 0.00 | 45 | 1018.3 |
| 20260905043504 | 76 | 0 | 0.0 | 4.0 | 0.00 | 0.00 | 0.00 | 45 | 1018.3 |
| 20260905043003 | 76 | 0 | 0.0 | 4.0 | 0.00 | 0.00 | 0.00 | 45 | 1018.2 |
| 20260905042503 | 76 | 153 | 1.0 | 3.0 | 0.00 | 0.00 | 0.00 | 45 | 1018.2 |
| 20260905042003 | 76 | 164 | 1.0 | 3.0 | 0.00 | 0.00 | 0.00 | 46 | 1018.1 |
| 20260905041504 | 76 | 220 | 1.0 | 3.0 | 0.00 | 0.00 | 0.00 | 46 | 1018.1 |
| 20260905041003 | 76 | 203 | 1.0 | 3.0 | 0.00 | 0.00 | 0.00 | 46 | 1018.0 |
| 20260905040503 | 76 | 152 | 1.0 | 3.0 | 0.00 | 0.00 | 0.00 | 46 | 1017.9 |
| 20260905040004 | 76 | 0 | 0.0 | 3.0 | 0.00 | 0.00 | 0.00 | 46 | 1017.8 |
| 20260905035503 | 76 | 188 | 1.0 | 3.0 | 0.00 | 0.00 | 0.00 | 46 | 1017.7 |
| 20260905035004 | 76 | 0 | 0.0 | 3.0 | 0.00 | 0.00 | 0.00 | 46 | 1017.7 |
| 20260905034504 | 76 | 0 | 0.0 | 3.0 | 0.00 | 0.00 | 0.00 | 46 | 1017.6 |
| 20260905034005 | 76 | 0 | 0.0 | 4.0 | 0.00 | 0.00 | 0.00 | 46 | 1017.6 |
| 20260905033503 | 76 | 0 | 0.0 | 4.0 | 0.00 | 0.00 | 0.00 | 46 | 1017.7 |
| 20260905033004 | 76 | 32 | 2.0 | 4.0 | 0.00 | 0.00 | 0.00 | 46 | 1017.7 |
| 20260905032503 | 76 | 0 | 0.0 | 3.0 | 0.00 | 0.00 | 0.00 | 46 | 1017.7 |
| 20260905032003 | 76 | 0 | 0.0 | 3.0 | 0.00 | 0.00 | 0.00 | 46 | 1017.6 |
| 20260905031504 | 76 | 181 | 1.0 | 3.0 | 0.00 | 0.00 | 0.00 | 46 | 1017.5 |
| 20260905031003 | 76 | 168 | 1.0 | 2.0 | 0.00 | 0.00 | 0.00 | 46 | 1017.5 |
| 20260905030503 | 76 | 0 | 0.0 | 4.0 | 0.00 | 0.00 | 0.00 | 45 | 1017.7 |
| 20260905030003 | 76 | 177 | 1.0 | 4.0 | 0.00 | 0.00 | 0.00 | 45 | 1017.6 |
| 20260905025504 | 76 | 0 | 0.0 | 2.0 | 0.00 | 0.00 | 0.00 | 45 | 1017.6 |
| 20260905025003 | 76 | 208 | 1.0 | 4.0 | 0.00 | 0.00 | 0.00 | 45 | 1017.4 |
| 20260905024503 | 76 | 236 | 1.0 | 4.0 | 0.00 | 0.00 | 0.00 | 45 | 1017.4 |
| 20260905024005 | 76 | 271 | 2.0 | 4.0 | 0.00 | 0.00 | 0.00 | 45 | 1017.3 |
| 20260905023503 | 76 | 249 | 2.0 | 5.0 | 0.00 | 0.00 | 0.00 | 44 | 1017.3 |
| 20260905023003 | 77 | 198 | 1.0 | 5.0 | 0.00 | 0.00 | 0.00 | 43 | 1017.4 |
| 20260905022503 | 77 | 201 | 2.0 | 5.0 | 0.00 | 0.00 | 0.00 | 43 | 1017.4 |
| 20260905022004 | 77 | 22 | 2.0 | 4.0 | 0.00 | 0.00 | 0.00 | 43 | 1017.5 |
| 20260905021503 | 77 | 61 | 1.0 | 5.0 | 0.00 | 0.00 | 0.00 | 43 | 1017.4 |
| 20260905021003 | 77 | 0 | 0.0 | 5.0 | 0.00 | 0.00 | 0.00 | 43 | 1017.5 |
| 20260905020504 | 77 | 356 | 1.0 | 4.0 | 0.00 | 0.00 | 0.00 | 43 | 1017.3 |
| 20260905020003 | 78 | 0 | 0.0 | 4.0 | 0.00 | 0.00 | 0.00 | 42 | 1017.3 |
| 20260905015503 | 78 | 257 | 1.0 | 4.0 | 0.00 | 0.00 | 0.00 | 42 | 1017.3 |
| 20260905015004 | 78 | 164 | 1.0 | 3.0 | 0.00 | 0.00 | 0.00 | 41 | 1017.3 |
| 20260905014504 | 78 | 201 | 1.0 | 2.0 | 0.00 | 0.00 | 0.00 | 40 | 1017.3 |
| 20260905014003 | 78 | 304 | 1.0 | 2.0 | 0.00 | 0.00 | 0.00 | 40 | 1017.3 |
| 20260905013504 | 78 | 267 | 1.0 | 2.0 | 0.00 | 0.00 | 0.00 | 39 | 1017.4 |
| 20260905013003 | 78 | 225 | 1.0 | 2.0 | 0.00 | 0.00 | 0.00 | 39 | 1017.2 |
| 20260905012504 | 78 | 27 | 1.0 | 3.0 | 0.00 | 0.00 | 0.00 | 39 | 1017.2 |
| 20260905012004 | 78 | 0 | 0.0 | 3.0 | 0.00 | 0.00 | 0.00 | 39 | 1017.1 |
| 20260905011503 | 78 | 0 | 0.0 | 2.0 | 0.00 | 0.00 | 0.00 | 38 | 1017.1 |
| 20260905011003 | 78 | 0 | 0.0 | 2.0 | 0.00 | 0.00 | 0.00 | 39 | 1017.0 |
| 20260905010503 | 78 | 0 | 0.0 | 2.0 | 0.00 | 0.00 | 0.00 | 38 | 1017.1 |
| 20260905010004 | 78 | 0 | 0.0 | 2.0 | 0.00 | 0.00 | 0.00 | 37 | 1017.1 |
| 20260905005503 | 78 | 0 | 0.0 | 3.0 | 0.00 | 0.00 | 0.00 | 37 | 1017.2 |
| 20260905005003 | 78 | 0 | 0.0 | 4.0 | 0.00 | 0.00 | 0.00 | 37 | 1017.0 |
| 20260905004503 | 78 | 0 | 0.0 | 4.0 | 0.00 | 0.00 | 0.00 | 37 | 1017.0 |
| 20260905004003 | 78 | 55 | 1.0 | 4.0 | 0.00 | 0.00 | 0.00 | 37 | 1016.9 |
| 20260905003504 | 78 | 52 | 1.0 | 4.0 | 0.00 | 0.00 | 0.00 | 37 | 1016.9 |
| 20260905003004 | 78 | 165 | 2.0 | 4.0 | 0.00 | 0.00 | 0.00 | 37 | 1016.9 |
| 20260905002503 | 78 | 199 | 1.0 | 4.0 | 0.00 | 0.00 | 0.00 | 37 | 1016.8 |
| 20260905002004 | 78 | 245 | 2.0 | 4.0 | 0.00 | 0.00 | 0.00 | 37 | 1016.6 |
| 20260905001504 | 78 | 0 | 0.0 | 4.0 | 0.00 | 0.00 | 0.00 | 36 | 1016.7 |
| 20260905001003 | 78 | 286 | 1.0 | 4.0 | 0.00 | 0.00 | 0.00 | 36 | 1016.6 |
| 20260905000504 | 79 | 236 | 2.0 | 4.0 | 0.00 | 0.00 | 0.00 | 35 | 1016.7 |
| 20260905000004 | 78 | 217 | 1.0 | 4.0 | 0.00 | 0.00 | 0.00 | 35 | 1016.6 |
| 20260904235503 | 79 | 213 | 2.0 | 4.0 | 0.00 | 0.00 | 0.00 | 35 | 1016.6 |
| 20260904235003 | 79 | 0 | 0.0 | 3.0 | 0.00 | 0.00 | 0.00 | 36 | 1016.6 |
| 20260904234503 | 79 | 332 | 2.0 | 4.0 | 0.00 | 0.00 | 0.00 | 35 | 1016.6 |
| 20260904234004 | 79 | 295 | 1.0 | 5.0 | 0.00 | 0.00 | 0.00 | 36 | 1016.5 |
| 20260904233504 | 79 | 286 | 2.0 | 5.0 | 0.00 | 0.00 | 0.00 | 36 | 1016.5 |
| 20260904233003 | 79 | 258 | 2.0 | 4.0 | 0.00 | 0.00 | 0.00 | 36 | 1016.5 |
| 20260904232503 | 79 | 287 | 2.0 | 5.0 | 0.00 | 0.00 | 0.00 | 37 | 1016.5 |
| 20260904232003 | 78 | 302 | 2.0 | 7.0 | 0.00 | 0.00 | 0.00 | 37 | 1016.5 |
| 20260904231504 | 79 | 266 | 1.0 | 7.0 | 0.00 | 0.00 | 0.00 | 37 | 1016.4 |
| 20260904231004 | 79 | 217 | 2.0 | 5.0 | 0.00 | 0.00 | 0.00 | 37 | 1016.3 |
| 20260904230503 | 79 | 235 | 2.0 | 5.0 | 0.00 | 0.00 | 0.00 | 37 | 1016.5 |
| 20260904230004 | 80 | 291 | 2.0 | 5.0 | 0.00 | 0.00 | 0.00 | 35 | 1016.3 |
| 20260904225504 | 80 | 288 | 2.0 | 7.0 | 0.00 | 0.00 | 0.00 | 34 | 1016.3 |
| 20260904225003 | 80 | 301 | 1.0 | 7.0 | 0.00 | 0.00 | 0.00 | 32 | 1016.4 |
| 20260904224504 | 80 | 301 | 1.0 | 6.0 | 0.00 | 0.00 | 0.00 | 31 | 1016.4 |
| 20260904224004 | 80 | 260 | 2.0 | 6.0 | 0.00 | 0.00 | 0.00 | 30 | 1016.5 |
| 20260904223503 | 80 | 239 | 2.0 | 6.0 | 0.00 | 0.00 | 0.00 | 29 | 1016.4 |
| 20260904223003 | 80 | 270 | 1.0 | 5.0 | 0.00 | 0.00 | 0.00 | 27 | 1016.5 |
| 20260904222503 | 80 | 285 | 1.0 | 5.0 | 0.00 | 0.00 | 0.00 | 25 | 1016.6 |
| 20260904222004 | 81 | 285 | 2.0 | 4.0 | 0.00 | 0.00 | 0.00 | 22 | 1016.5 |
| 20260904221504 | 81 | 242 | 2.0 | 4.0 | 0.00 | 0.00 | 0.00 | 20 | 1016.4 |
| 20260904221003 | 82 | 261 | 2.0 | 4.0 | 0.00 | 0.00 | 0.00 | 19 | 1016.4 |
| 20260904220503 | 82 | 11 | 2.0 | 5.0 | 0.00 | 0.00 | 0.00 | 18 | 1016.6 |
| 20260904220004 | 82 | 30 | 1.0 | 5.0 | 0.00 | 0.00 | 0.00 | 18 | 1016.6 |
| 20260904215503 | 82 | 33 | 2.0 | 4.0 | 0.00 | 0.00 | 0.00 | 18 | 1016.6 |
| 20260904215004 | 82 | 35 | 2.0 | 4.0 | 0.00 | 0.00 | 0.00 | 18 | 1016.7 |
| 20260904214503 | 82 | 0 | 0.0 | 4.0 | 0.00 | 0.00 | 0.00 | 18 | 1016.7 |
| 20260904214003 | 82 | 25 | 2.0 | 4.0 | 0.00 | 0.00 | 0.00 | 18 | 1016.7 |
| 20260904213504 | 82 | 0 | 0.0 | 4.0 | 0.00 | 0.00 | 0.00 | 18 | 1016.7 |
| 20260904213003 | 82 | 0 | 0.0 | 4.0 | 0.00 | 0.00 | 0.00 | 17 | 1016.6 |
| 20260904212503 | 82 | 0 | 0.0 | 3.0 | 0.00 | 0.00 | 0.00 | 17 | 1016.7 |
| 20260904212004 | 82 | 0 | 0.0 | 2.0 | 0.00 | 0.00 | 0.00 | 18 | 1016.6 |
| 20260904211503 | 82 | 0 | 0.0 | 2.0 | 0.00 | 0.00 | 0.00 | 17 | 1016.5 |
| 20260904211004 | 82 | 0 | 0.0 | 4.0 | 0.00 | 0.00 | 0.00 | 17 | 1016.4 |
| 20260904210503 | 82 | 0 | 0.0 | 4.0 | 0.00 | 0.00 | 0.00 | 17 | 1016.5 |
| 20260904210003 | 83 | 0 | 0.0 | 4.0 | 0.00 | 0.00 | 0.00 | 17 | 1016.5 |
| 20260904205503 | 83 | 0 | 0.0 | 4.0 | 0.00 | 0.00 | 0.00 | 16 | 1016.4 |
| 20260904205004 | 83 | 91 | 1.0 | 4.0 | 0.00 | 0.00 | 0.00 | 16 | 1016.5 |
| 20260904204503 | 83 | 0 | 0.0 | 4.0 | 0.00 | 0.00 | 0.00 | 18 | 1016.4 |
| 20260904204003 | 83 | 159 | 1.0 | 4.0 | 0.00 | 0.00 | 0.00 | 23 | 1016.4 |
| 20260904203503 | 83 | 181 | 1.0 | 4.0 | 0.00 | 0.00 | 0.00 | 26 | 1016.3 |
| 20260904203004 | 83 | 0 | 0.0 | 4.0 | 0.00 | 0.00 | 0.00 | 24 | 1016.3 |
| 20260904202503 | 84 | 181 | 2.0 | 4.0 | 0.00 | 0.00 | 0.00 | 24 | 1016.2 |
| 20260904202004 | 84 | 166 | 2.0 | 5.0 | 0.00 | 0.00 | 0.00 | 21 | 1016.2 |
| 20260904201504 | 85 | 109 | 1.0 | 5.0 | 0.00 | 0.00 | 0.00 | 18 | 1016.1 |
| 20260904201004 | 85 | 0 | 0.0 | 4.0 | 0.00 | 0.00 | 0.00 | 14 | 1016.1 |
| 20260904200503 | 85 | 2 | 2.0 | 4.0 | 0.00 | 0.00 | 0.00 | 16 | 1016.1 |
| 20260904200003 | 85 | 0 | 0.0 | 4.0 | 0.00 | 0.00 | 0.00 | 14 | 1016.1 |
| 20260904195504 | 85 | 29 | 2.0 | 4.0 | 0.00 | 0.00 | 0.00 | 14 | 1016.0 |
| 20260904195003 | 85 | 0 | 0.0 | 4.0 | 0.00 | 0.00 | 0.00 | 13 | 1016.0 |
| 20260904194503 | 85 | 0 | 0.0 | 4.0 | 0.00 | 0.00 | 0.00 | 14 | 1016.0 |
| 20260904194003 | 85 | 119 | 1.0 | 3.0 | 0.00 | 0.00 | 0.00 | 14 | 1016.0 |
| 20260904193504 | 84 | 0 | 0.0 | 3.0 | 0.00 | 0.00 | 0.00 | 14 | 1016.1 |
| 20260904193003 | 84 | 0 | 0.0 | 2.0 | 0.00 | 0.00 | 0.00 | 15 | 1016.1 |
| 20260904192503 | 84 | 0 | 0.0 | 2.0 | 0.00 | 0.00 | 0.00 | 15 | 1016.1 |
| 20260904192004 | 84 | 0 | 0.0 | 2.0 | 0.00 | 0.00 | 0.00 | 14 | 1016.0 |
| 20260904191503 | 84 | 0 | 0.0 | 2.0 | 0.00 | 0.00 | 0.00 | 14 | 1016.1 |
| 20260904191004 | 85 | 0 | 0.0 | 1.0 | 0.00 | 0.00 | 0.00 | 14 | 1016.0 |
| 20260904190503 | 85 | 0 | 0.0 | 2.0 | 0.00 | 0.00 | 0.00 | 13 | 1016.0 |
| 20260904190004 | 85 | 0 | 0.0 | 2.0 | 0.00 | 0.00 | 0.00 | 13 | 1016.0 |
| 20260904185503 | 85 | 0 | 0.0 | 2.0 | 0.00 | 0.00 | 0.00 | 13 | 1016.0 |
| 20260904185003 | 86 | 0 | 0.0 | 2.0 | 0.00 | 0.00 | 0.00 | 12 | 1015.9 |
| 20260904184503 | 86 | 0 | 0.0 | 4.0 | 0.00 | 0.00 | 0.00 | 12 | 1015.9 |
| 20260904184004 | 86 | 55 | 1.0 | 4.0 | 0.00 | 0.00 | 0.00 | 12 | 1015.9 |
| 20260904183504 | 86 | 0 | 0.0 | 3.0 | 0.00 | 0.00 | 0.00 | 12 | 1015.8 |
| 20260904183003 | 86 | 53 | 2.0 | 4.0 | 0.00 | 0.00 | 0.00 | 13 | 1015.8 |
| 20260904182503 | 86 | 41 | 1.0 | 4.0 | 0.00 | 0.00 | 0.00 | 12 | 1015.8 |
| 20260904182004 | 86 | 0 | 0.0 | 3.0 | 0.00 | 0.00 | 0.00 | 12 | 1015.6 |
| 20260904181504 | 87 | 19 | 1.0 | 3.0 | 0.00 | 0.00 | 0.00 | 12 | 1015.5 |
| 20260904181003 | 87 | 30 | 1.0 | 3.0 | 0.00 | 0.00 | 0.00 | 11 | 1015.6 |
| 20260904180503 | 88 | 44 | 1.0 | 3.0 | 0.00 | 0.00 | 0.00 | 11 | 1015.4 |
| 20260904180004 | 88 | 18 | 1.0 | 3.0 | 0.00 | 0.00 | 0.00 | 10 | 1015.3 |
| 20260904175504 | 88 | 346 | 1.0 | 4.0 | 0.00 | 0.00 | 0.00 | 10 | 1015.3 |
| 20260904175004 | 89 | 0 | 0.0 | 4.0 | 0.00 | 0.00 | 0.00 | 10 | 1015.2 |
| 20260904174503 | 89 | 0 | 0.0 | 4.0 | 0.00 | 0.00 | 0.00 | 10 | 1015.2 |
| 20260904174003 | 89 | 0 | 0.0 | 3.0 | 0.00 | 0.00 | 0.00 | 10 | 1015.1 |
| 20260904173504 | 90 | 163 | 1.0 | 4.0 | 0.00 | 0.00 | 0.00 | 10 | 1015.2 |
| 20260904173004 | 90 | 0 | 0.0 | 4.0 | 0.00 | 0.00 | 0.00 | 10 | 1015.0 |
| 20260904172503 | 90 | 244 | 2.0 | 5.0 | 0.00 | 0.00 | 0.00 | 10 | 1014.9 |
| 20260904172003 | 90 | 248 | 2.0 | 7.0 | 0.00 | 0.00 | 0.00 | 10 | 1014.8 |
| 20260904171504 | 90 | 311 | 2.0 | 7.0 | 0.00 | 0.00 | 0.00 | 10 | 1014.7 |
| 20260904171004 | 90 | 25 | 1.0 | 5.0 | 0.00 | 0.00 | 0.00 | 10 | 1014.7 |
| 20260904170503 | 90 | 52 | 1.0 | 4.0 | 0.00 | 0.00 | 0.00 | 10 | 1014.7 |
| 20260904170003 | 92 | 35 | 1.0 | 4.0 | 0.00 | 0.00 | 0.00 | 10 | 1014.4 |
| 20260904165504 | 92 | 240 | 1.0 | 5.0 | 0.00 | 0.00 | 0.00 | 10 | 1014.4 |
| 20260904165004 | 91 | 250 | 2.0 | 5.0 | 0.00 | 0.00 | 0.00 | 10 | 1014.4 |
| 20260904164503 | 92 | 299 | 1.0 | 6.0 | 0.00 | 0.00 | 0.00 | 10 | 1014.4 |
| 20260904164003 | 92 | 325 | 2.0 | 6.0 | 0.00 | 0.00 | 0.00 | 10 | 1014.5 |
| 20260904163503 | 92 | 356 | 3.0 | 5.0 | 0.00 | 0.00 | 0.00 | 10 | 1014.5 |
| 20260904163003 | 92 | 0 | 0.0 | 4.0 | 0.00 | 0.00 | 0.00 | 10 | 1014.5 |
| 20260904162503 | 93 | 0 | 0.0 | 4.0 | 0.00 | 0.00 | 0.00 | 10 | 1014.4 |
| 20260904162003 | 93 | 0 | 0.0 | 6.0 | 0.00 | 0.00 | 0.00 | 10 | 1014.4 |
| 20260904161504 | 93 | 344 | 1.0 | 6.0 | 0.00 | 0.00 | 0.00 | 10 | 1014.4 |
| 20260904161004 | 94 | 324 | 2.0 | 6.0 | 0.00 | 0.00 | 0.00 | 10 | 1014.4 |
| 20260904160503 | 94 | 214 | 1.0 | 4.0 | 0.00 | 0.00 | 0.00 | 10 | 1014.4 |
| 20260904160003 | 94 | 0 | 0.0 | 5.0 | 0.00 | 0.00 | 0.00 | 10 | 1014.4 |
| 20260904155504 | 94 | 0 | 0.0 | 5.0 | 0.00 | 0.00 | 0.00 | 10 | 1014.4 |
| 20260904155003 | 95 | 281 | 1.0 | 8.0 | 0.00 | 0.00 | 0.00 | 10 | 1014.5 |
| 20260904154503 | 95 | 0 | 0.0 | 8.0 | 0.00 | 0.00 | 0.00 | 10 | 1014.4 |
| 20260904154004 | 95 | 270 | 1.0 | 8.0 | 0.00 | 0.00 | 0.00 | 10 | 1014.3 |
| 20260904153503 | 96 | 287 | 2.0 | 8.0 | 0.00 | 0.00 | 0.00 | 10 | 1014.2 |
| 20260904153003 | 96 | 317 | 1.0 | 8.0 | 0.00 | 0.00 | 0.00 | 10 | 1014.3 |
| 20260904152503 | 97 | 0 | 0.0 | 11.0 | 0.00 | 0.00 | 0.00 | 10 | 1014.2 |
| 20260904152004 | 98 | 277 | 2.0 | 11.0 | 0.00 | 0.00 | 0.00 | 10 | 1014.1 |
| 20260904151503 | 98 | 291 | 4.0 | 8.0 | 0.00 | 0.00 | 0.00 | 10 | 1014.2 |
| 20260904151003 | 99 | 323 | 4.0 | 8.0 | 0.00 | 0.00 | 0.00 | 10 | 1014.2 |
| 20260904150503 | 99 | 290 | 1.0 | 8.0 | 0.00 | 0.00 | 0.00 | 10 | 1014.2 |
| 20260904150004 | 99 | 264 | 2.0 | 8.0 | 0.00 | 0.00 | 0.00 | 10 | 1014.2 |
| 20260904145503 | 99 | 315 | 3.0 | 8.0 | 0.00 | 0.00 | 0.00 | 10 | 1014.3 |
| 20260904145003 | 100 | 291 | 3.0 | 7.0 | 0.00 | 0.00 | 0.00 | 10 | 1014.3 |
| 20260904144503 | 101 | 217 | 2.0 | 6.0 | 0.00 | 0.00 | 0.00 | 10 | 1014.3 |
| 20260904144004 | 100 | 208 | 1.0 | 7.0 | 0.00 | 0.00 | 0.00 | 10 | 1014.3 |
| 20260904143504 | 101 | 110 | 2.0 | 7.0 | 0.00 | 0.00 | 0.00 | 10 | 1014.4 |
| 20260904143004 | 103 | 110 | 2.0 | 6.0 | 0.00 | 0.00 | 0.00 | 10 | 1014.2 |
| 20260904142504 | 102 | 128 | 2.0 | 5.0 | 0.00 | 0.00 | 0.00 | 10 | 1014.2 |
| 20260904142004 | 101 | 154 | 3.0 | 6.0 | 0.00 | 0.00 | 0.00 | 10 | 1014.4 |
| 20260904141503 | 101 | 192 | 3.0 | 6.0 | 0.00 | 0.00 | 0.00 | 10 | 1014.4 |
| 20260904141004 | 101 | 185 | 2.0 | 7.0 | 0.00 | 0.00 | 0.00 | 10 | 1014.4 |
| 20260904140504 | 101 | 183 | 1.0 | 7.0 | 0.00 | 0.00 | 0.00 | 10 | 1014.4 |
| 20260904140003 | 101 | 227 | 2.0 | 8.0 | 0.00 | 0.00 | 0.00 | 10 | 1014.4 |
| 20260904135503 | 100 | 187 | 1.0 | 8.0 | 0.00 | 0.00 | 0.00 | 10 | 1014.3 |
| 20260904135004 | 100 | 168 | 2.0 | 7.0 | 0.00 | 0.00 | 0.00 | 10 | 1014.5 |
| 20260904134503 | 99 | 0 | 0.0 | 6.0 | 0.00 | 0.00 | 0.00 | 10 | 1014.5 |
| 20260904134003 | 101 | 339 | 2.0 | 6.0 | 0.00 | 0.00 | 0.00 | 10 | 1014.6 |
| 20260904133503 | 102 | 356 | 2.0 | 9.0 | 0.00 | 0.00 | 0.00 | 10 | 1014.5 |
| 20260904133004 | 101 | 0 | 0.0 | 9.0 | 0.00 | 0.00 | 0.00 | 10 | 1014.6 |
| 20260904132503 | 101 | 282 | 2.0 | 7.0 | 0.00 | 0.00 | 0.00 | 10 | 1014.5 |
| 20260904132004 | 100 | 210 | 1.0 | 6.0 | 0.00 | 0.00 | 0.00 | 10 | 1014.6 |
| 20260904131503 | 100 | 37 | 3.0 | 8.0 | 0.00 | 0.00 | 0.00 | 10 | 1014.5 |
| 20260904131004 | 98 | 29 | 3.0 | 9.0 | 0.00 | 0.00 | 0.00 | 10 | 1014.5 |
| 20260904130503 | 97 | 283 | 2.0 | 11.0 | 0.00 | 0.00 | 0.00 | 10 | 1014.6 |
| 20260904130003 | 98 | 280 | 2.0 | 11.0 | 0.00 | 0.00 | 0.00 | 10 | 1014.5 |
| 20260904125503 | 100 | 123 | 2.0 | 5.0 | 0.00 | 0.00 | 0.00 | 10 | 1014.7 |
| 20260904125004 | 99 | 174 | 2.0 | 11.0 | 0.00 | 0.00 | 0.00 | 10 | 1014.7 |
| 20260904124504 | 98 | 185 | 2.0 | 11.0 | 0.00 | 0.00 | 0.00 | 10 | 1014.7 |
| 20260904124003 | 97 | 144 | 2.0 | 6.0 | 0.00 | 0.00 | 0.00 | 10 | 1014.8 |
| 20260904123503 | 98 | 0 | 0.0 | 9.0 | 0.00 | 0.00 | 0.00 | 10 | 1014.8 |
| 20260904123004 | 98 | 285 | 2.0 | 9.0 | 0.00 | 0.00 | 0.00 | 10 | 1014.9 |
| 20260904122503 | 98 | 257 | 1.0 | 7.0 | 0.00 | 0.00 | 0.00 | 10 | 1014.9 |
| 20260904122003 | 100 | 83 | 1.0 | 5.0 | 0.00 | 0.00 | 0.00 | 10 | 1015.1 |
| 20260904121504 | 100 | 0 | 0.0 | 5.0 | 0.00 | 0.00 | 0.00 | 10 | 1015.1 |
| 20260904121004 | 99 | 0 | 0.0 | 5.0 | 0.00 | 0.00 | 0.00 | 10 | 1015.3 |
| 20260904120503 | 98 | 0 | 0.0 | 6.0 | 0.00 | 0.00 | 0.00 | 10 | 1015.3 |
| 20260904120003 | 97 | 317 | 2.0 | 6.0 | 0.00 | 0.00 | 0.00 | 10 | 1015.4 |
| 20260904115503 | 96 | 41 | 1.0 | 3.0 | 0.00 | 0.00 | 0.00 | 10 | 1015.4 |
| 20260904115004 | 97 | 14 | 1.0 | 8.0 | 0.00 | 0.00 | 0.00 | 10 | 1015.6 |
| 20260904114503 | 96 | 318 | 1.0 | 8.0 | 0.00 | 0.00 | 0.00 | 10 | 1015.6 |
| 20260904114003 | 97 | 0 | 0.0 | 8.0 | 0.00 | 0.00 | 0.00 | 10 | 1015.6 |
| 20260904113503 | 98 | 329 | 2.0 | 8.0 | 0.00 | 0.00 | 0.00 | 10 | 1015.7 |
| 20260904113004 | 99 | 249 | 1.0 | 7.0 | 0.00 | 0.00 | 0.00 | 10 | 1015.7 |
| 20260904112504 | 99 | 232 | 2.0 | 8.0 | 0.00 | 0.00 | 0.00 | 10 | 1015.6 |
| 20260904112004 | 98 | 249 | 1.0 | 8.0 | 0.00 | 0.00 | 0.00 | 10 | 1015.6 |
| 20260904111503 | 98 | 313 | 2.0 | 6.0 | 0.00 | 0.00 | 0.00 | 10 | 1015.7 |